Weather History for Shirley, NY

Change the Weather History Date:

Monday, February 24, 2014

  Actual Average (KISP) Record (KISP)
Temperature  
Mean Temperature 36 °F 34 °F  
Max Temperature 44 °F 42 °F 59 °F (2000)
Min Temperature 26 °F 27 °F 17 °F (1993)
Degree Days  
Heating Degree Days 30 31  
Month to date heating degree days 782  
Since 1 July heating degree days 3774  
Cooling Degree Days 0 0  
Month to date cooling degree days 0  
Year to date cooling degree days 0  
Moisture  
Dew Point 19 °F    
Average Humidity 56    
Maximum Humidity 89    
Minimum Humidity 33    
Precipitation  
Precipitation 0.04 in 0.13 in 1.31 in (1988)
Month to date precipitation 2.71  
Year to date precipitation 6.35  
Snow  
Snow 0.00 in 0.20 in 3.20 in (2005)
Month to date snowfall 6.1  
Since 1 July snowfall 18.7  
Snow Depth -    
Sea Level Pressure  
Sea Level Pressure 29.90 in    
Wind  
Wind Speed 12 mph (WNW)    
Max Wind Speed 23 mph    
Max Gust Speed 34 mph    
Visibility 10 miles    
Events Rain    
T = Trace of Precipitation, MM = Missing Value Source: NWS Daily Summary

Daily Weather History Graph

Daily Weather History Graph

Search for Another Location

Airport:

Trip Planner

Search our weather history database for the weather conditions in past years. The results will help you decide how hot, cold, wet, or windy it might be!

Date:

Astronomy

Feb. 24, 2014 Rise Set
Actual Time 6:33 AM EST 5:36 PM EST
Civil Twilight 6:05 AM EST 6:04 PM EST
Nautical Twilight 5:33 AM EST 6:36 PM EST
Astronomical Twilight 5:01 AM EST 7:08 PM EST
Moon 2:30 AM EST (2/24) 12:33 PM EST (2/24)
Length of Visible Light 11h 59m
Length of Day
11h 03m
Waning Crescent, 28% of the Moon is Illuminated
Feb 24
Waning Crescent
Mar 1
New
Mar 8
First Quarter
Mar 16
Full
Mar 23
Last Quarter

Hourly Weather History & Observations

Time (EST) Temp. Windchill Dew Point Humidity Pressure Visibility Wind Dir Wind Speed Gust Speed Precip Events Conditions
12:56 AM 44.1 °F 38.1 °F 30.0 °F 58% 29.83 in 10.0 mi WNW 11.5 mph - N/A   Overcast
1:38 AM 39.9 °F 32.9 °F 32.0 °F 73% 29.84 in 9.0 mi WNW 11.5 mph - 0.01 in Rain Light Rain
1:56 AM 39.0 °F 34.8 °F 33.1 °F 79% 29.84 in 10.0 mi West 5.8 mph - 0.03 in Rain Light Rain
2:36 AM 37.9 °F 32.7 °F 34.0 °F 86% 29.81 in 10.0 mi South 6.9 mph - 0.01 in Rain Light Rain
2:56 AM 37.9 °F 32.1 °F 34.0 °F 86% 29.81 in 10.0 mi SSW 8.1 mph - 0.01 in   Overcast
3:56 AM 37.0 °F 31.6 °F 34.0 °F 89% 29.82 in 10.0 mi SW 6.9 mph - N/A   Overcast
4:56 AM 37.0 °F 31.0 °F 34.0 °F 89% 29.84 in 10.0 mi SW 8.1 mph - N/A   Clear
5:56 AM 36.0 °F 31.1 °F 33.1 °F 89% 29.83 in 10.0 mi West 5.8 mph - N/A   Clear
6:56 AM 35.1 °F 28.6 °F 30.9 °F 85% 29.84 in 10.0 mi NW 8.1 mph - N/A   Clear
7:56 AM 35.1 °F 25.9 °F 27.0 °F 72% 29.88 in 10.0 mi NNW 13.8 mph - N/A   Clear
8:56 AM 36.0 °F 26.7 °F 19.9 °F 52% 29.89 in 10.0 mi NW 15.0 mph 19.6 mph N/A   Clear
9:56 AM 37.0 °F 28.5 °F 15.1 °F 41% 29.89 in 10.0 mi NW 13.8 mph 23.0 mph N/A   Clear
10:56 AM 37.9 °F 28.5 °F 14.0 °F 38% 29.88 in 10.0 mi West 17.3 mph 26.5 mph N/A   Clear
11:56 AM 36.0 °F 25.3 °F 10.9 °F 36% 29.87 in 10.0 mi WNW 19.6 mph 33.4 mph N/A   Clear
12:56 PM 37.0 °F 26.2 °F 10.0 °F 33% 29.86 in 10.0 mi WNW 21.9 mph 33.4 mph N/A   Clear
1:56 PM 36.0 °F 25.3 °F 10.0 °F 34% 29.86 in 10.0 mi WNW 19.6 mph 33.4 mph N/A   Clear
2:56 PM 36.0 °F 25.3 °F 9.0 °F 33% 29.87 in 10.0 mi WNW 19.6 mph 31.1 mph N/A   Clear
3:56 PM 35.1 °F 23.3 °F 8.1 °F 33% 29.89 in 10.0 mi NW 23.0 mph 34.5 mph N/A   Clear
4:56 PM 34.0 °F 21.8 °F 8.1 °F 34% 29.91 in 10.0 mi WNW 23.0 mph 29.9 mph N/A   Clear
5:56 PM 32.0 °F 22.5 °F 10.0 °F 40% 29.95 in 10.0 mi NW 12.7 mph - N/A   Partly Cloudy
6:56 PM 30.9 °F 21.7 °F 10.9 °F 43% 29.99 in 10.0 mi WNW 11.5 mph 19.6 mph N/A   Clear
8:56 PM 28.9 °F 18.2 °F 12.0 °F 49% 30.04 in 10.0 mi NW 13.8 mph 31.1 mph N/A   Mostly Cloudy
9:56 PM 28.0 °F 15.3 °F 9.0 °F 45% 30.05 in 10.0 mi WNW 18.4 mph 28.8 mph N/A   Clear
10:56 PM 27.0 °F 14.3 °F 7.0 °F 43% 30.06 in 10.0 mi WNW 17.3 mph 27.6 mph N/A   Clear
11:56 PM 26.1 °F 14.0 °F 6.1 °F 43% 30.07 in 10.0 mi NW 15.0 mph 34.5 mph N/A   Clear